Location: Leeds
(37.2390°N, 113.3580°W)
Time: 19:10:31
(UTC-07:00)

ISS - All Passes

Search period start: 17 January 2018 00:00
Search period end: 27 January 2018 00:00
Orbit: 402 x 407 km, 51.6° (Epoch: 18 January)

Date Brightness Start Highest point End Pass type
(mag) Time Alt. Az. Time Alt. Az. Time Alt. Az.
17 Jan - 00:05:12 10° WNW 00:07:19 16° NNW 00:09:27 10° NNE night (unlit)
17 Jan - 04:57:00 10° NW 05:00:05 36° NE 05:03:08 10° ESE visible
17 Jan - 06:33:54 10° W 06:36:22 20° SW 06:38:49 10° S visible
17 Jan - 21:35:25 10° SSW 21:38:22 33° SE 21:41:20 10° ENE night (unlit)
17 Jan - 23:12:08 10° W 23:14:52 24° NNW 23:17:37 10° NNE night (unlit)
18 Jan - 04:05:03 10° NNW 04:07:40 22° NNE 04:10:18 10° E night (unlit)
18 Jan - 05:41:09 10° WNW 05:44:15 40° SW 05:47:21 10° SSE visible
18 Jan - 20:44:09 10° S 20:46:16 16° SE 20:48:24 10° E night (unlit)
18 Jan - 22:19:22 10° WSW 22:22:29 42° NW 22:25:37 10° NE night (unlit)
18 Jan - 23:59:13 10° NNW 23:59:39 10° NNW 00:00:06 10° N night (unlit)
19 Jan - 03:13:15 10° NNW 03:15:11 15° NNE 03:17:07 10° ENE night (unlit)
19 Jan - 04:48:46 10° NW 04:52:03 88° SW 04:55:20 10° SE visible
19 Jan - 21:26:56 10° SW 21:30:11 86° NW 21:33:28 10° NE night (unlit)
19 Jan - 23:05:15 10° WNW 23:07:05 14° NNW 23:08:55 10° N night (unlit)
20 Jan - 02:21:53 10° N 02:22:37 11° NNE 02:23:19 10° NNE night (unlit)
20 Jan - 03:56:35 10° NW 03:59:45 45° NE 04:02:55 10° ESE night (unlit)
20 Jan - 05:33:55 10° W 05:35:57 15° SW 05:37:58 10° SSW visible
20 Jan - 20:34:51 10° SSW 20:37:57 43° SE 20:41:04 10° ENE night (unlit)
20 Jan - 22:12:00 10° W 22:14:33 21° NNW 22:17:07 10° NNE night (unlit)
21 Jan - 03:04:32 10° NNW 03:07:21 25° NNE 03:10:09 10° E night (unlit)
21 Jan - 04:40:53 10° WNW 04:43:50 31° SW 04:46:45 10° SSE night (unlit)
21 Jan - 19:43:17 10° S 19:45:47 21° SE 19:48:19 10° E visible
21 Jan - 21:19:06 10° WSW 21:22:07 34° NW 21:25:08 10° NNE night (unlit)
22 Jan - 02:12:39 10° NNW 02:14:51 17° NNE 02:17:04 10° ENE night (unlit)
22 Jan - 03:48:21 10° NW 03:51:37 67° SW 03:54:51 10° SE night (unlit)
22 Jan - 18:53:18 10° SE 18:53:41 10° SE 18:54:06 10° ESE visible
22 Jan - 20:26:31 10° WSW 20:29:44 67° NW 20:32:59 10° NE visible
22 Jan - 22:05:14 10° NW 22:06:43 12° NNW 22:08:13 10° N night (unlit)
23 Jan - 01:21:00 10° N 01:22:16 12° NNE 01:23:32 10° NE night (unlit)
23 Jan - 02:56:04 10° NW 02:59:19 57° NE 03:02:32 10° ESE night (unlit)
23 Jan - 04:34:04 10° WSW 04:35:24 12° SW 04:36:45 10° SSW night (unlit)
23 Jan - 19:34:15 10° SW 19:37:26 57° SE 19:40:39 10° ENE visible
23 Jan - 21:11:48 10° WNW 21:14:09 18° NNW 21:16:29 10° NNE night (unlit)
24 Jan - 02:03:57 10° NNW 02:06:54 30° NNE 02:09:51 10° E night (unlit)
24 Jan - 03:40:34 10° WNW 03:43:17 24° SW 03:45:59 10° S night (unlit)
24 Jan - 18:42:26 10° SSW 18:45:12 26° SE 18:48:00 10° ENE visible
24 Jan - 20:18:45 10° W 20:21:37 28° NNW 20:24:31 10° NNE visible
25 Jan - 01:11:57 10° NNW 01:14:24 19° NNE 01:16:50 10° ENE night (unlit)
25 Jan - 02:47:53 10° WNW 02:51:03 51° SW 02:54:14 10° SSE night (unlit)
25 Jan - 17:51:26 10° SSE 17:53:03 13° SE 17:54:40 10° E daylight
25 Jan - 19:26:00 10° WSW 19:29:11 52° NW 19:32:23 10° NE visible
25 Jan - 21:05:12 10° NW 21:06:16 11° NNW 21:07:19 10° N visible
26 Jan - 00:20:09 10° N 00:21:47 13° NNE 00:23:26 10° NE night (unlit)
26 Jan - 01:55:28 10° NW 01:58:44 74° NE 02:02:00 10° SE night (unlit)
26 Jan - 18:33:34 10° SW 18:36:49 75° SE 18:40:04 10° NE visible
26 Jan - 20:11:32 10° WNW 20:13:37 16° NNW 20:15:42 10° NNE visible
